Regional Weather Roundup
Issued by NWS

Home | Current Version | Previous Version | Text Only | Print | Product List | Glossary Off
Versions: 1 2 3 4 5 6 7 8 9 10 11 12 13 14 15 16 17 18 19 20 21 22 23 24 25 26 27 28 29 30 31 32 33 34 35 36 37 38 39 40 41 42 43 44 45 46 47 48 49 50

000
ASUS43 KIND 260409
RWRIN

WEATHER ROUNDUP FOR INDIANA
NATIONAL WEATHER SERVICE INDIANAPOLIS IN
1200 AM EDT SUN MAR 26 2017

NOTE: "FAIR" INDICATES FEW OR NO CLOUDS BELOW 12,000 FEET WITH NO
SIGNIFICANT WEATHER AND/OR OBSTRUCTIONS TO VISIBILITY.

* - STATION DOES NOT REPORT WEATHER SUCH AS PRECIPITATION OR FOG.

+ - STATION NOT QUALITY CONTROLLED BY THE NATIONAL WEATHER SERVICE.
    USE DATA WITH CAUTION...ESPECIALLY DEWPOINT AND RELATIVE
    HUMIDITY OBSERVATIONS.

INZ001>003-010>013-019-020-260500-
NORTHWEST INDIANA

CITY           SKY/WX    TMP DP  RH WIND       PRES   REMARKS
GARY /AIRPORT/ DRIZZLE   54  51  90 SE8G16    29.97S
KNOX *+        CLOUDY    50  36  57 E8        29.99F
LA PORTE +     CLOUDY    48  46  93 E12       30.00F
MICHIGAN CITY+ CLOUDY    50  46  87 E8        30.00F
MONTICELLO +   LGT RAIN  54  53  95 E6        29.96F
RENSSELAER +   DRIZZLE   54  54 100 E10       29.95F
VALPARAISO     CLOUDY    50  49  96 E13       29.99F FOG

$$

LMZ046-743>745-260500-
SOUTHERN LAKE MICHIGAN

STATION/POSITION TIME  TEMP    WIND        PRES    WAVE
                       AIR SEA DIR/SP/G            HT
                 (UTC) (F)     (DEG/KT/KT) (MB)    (FT)
BURNS HARBOR     0340   53     120/ 17/ 26 1015.6S
MICHIGAN CITY    0340   50     110/ 13/ 16   N/A

$$

INZ004-005-014>016-021>024-260500-
NORTH CENTRAL INDIANA

CITY           SKY/WX    TMP DP  RH WIND       PRES   REMARKS
GOSHEN         LGT RAIN  46  41  82 E13       30.04F
LOGANSPORT +   LGT RAIN  50  48  93 E10       29.99F
PERU/GRISSOM   CLOUDY    50  50 100 E12       29.98F
ROCHESTER +    LGT RAIN  52  48  87 E10       30.02S
SOUTH BEND     LGT RAIN  46  32  58 E15       30.02F
WARSAW +       CLOUDY    45  43  93 E12       30.04F

$$

INZ006>009-017-018-025>027-260500-
NORTHEAST INDIANA

CITY           SKY/WX    TMP DP  RH WIND       PRES   REMARKS
ANGOLA *+      CLOUDY    39  39 100 SE6       30.07F
AUBURN +       CLOUDY    41  37  87 NE7       30.07F
FORT WAYNE     CLOUDY    43  39  86 NE13      30.06F
HUNTINGTON +   CLOUDY    44  43  96 E8        30.05S
KENDALLVILLE + CLOUDY    41  39  92 E5        30.08S

$$

INZ028-029-035-036-043>045-051>053-260500-
WEST CENTRAL INDIANA

CITY           SKY/WX    TMP DP  RH WIND       PRES   REMARKS
CRAWFORDSVL +  CLOUDY    58  56  91 SE12      29.94F
GREENCASTLE +  CLOUDY    57  54  88 SE7       29.95F
LAFAYETTE      LGT RAIN  61  56  83 SE12      29.94F
TERRE HAUTE    CLOUDY    62  54  74 SE9       29.92F

$$

INZ030>032-037>040-046>048-054>057-064-065-260500-
CENTRAL INDIANA

CITY           SKY/WX    TMP DP  RH WIND       PRES   REMARKS
CP ATTERBURY + CLOUDY    57  55  94 SE5       29.98S
FISHERS *+     CLOUDY    57  57 100 CALM      29.97F
FRANKFORT +    RAIN      61  58  90 S10       29.98S
GREENWOOD *+   CLOUDY    59  58  95 E3        29.97F
INDIANAPOLIS   CLOUDY    58  57  97 E7        29.95F
-EAGLE CREEK   CLOUDY    59  57  93 E5        29.96F
KOKOMO +       LGT RAIN  52  50  93 NE12      30.00F
MARION +       CLOUDY    53  50  90 NE10      30.01F FOG
MT COMFORT *+  CLOUDY    57  55  94 CALM      29.99S
SHELBYVILLE    CLOUDY    59  55  87 E9        29.97F
ZIONSVILLE +   LGT RAIN  57  56  96 E5        29.98F

$$

INZ033-034-041-042-049-050-058-059-260500-
EAST CENTRAL INDIANA

CITY           SKY/WX    TMP DP  RH WIND       PRES   REMARKS
MUNCIE         LGT RAIN  59  55  87 NE8       30.01F
RICHMOND +     CLOUDY    59  50  72 SE8       30.01F

$$

INZ060-061-067>069-081>083-085>088-260500-
SOUTHWEST INDIANA

CITY           SKY/WX    TMP DP  RH WIND       PRES   REMARKS
EVANSVILLE     CLOUDY    65  54  67 S9        29.94R
HUNTINGBURG *+ RAIN      60  57  89 SE8       29.95F
WASHINGTON +   LGT RAIN  61  55  81 MISG      29.94S

$$

INZ062-063-066-070>080-084-089>092-260500-
SOUTH CENTRAL AND SOUTHEAST INDIANA

CITY           SKY/WX    TMP DP  RH WIND       PRES   REMARKS
BLOOMINGTON    LGT RAIN  59  55  87 SE7       29.96S
MADISON *+     CLOUDY    63  52  67 S6        30.02F
NORTH VERNON + CLOUDY   N/A N/A N/A SE3       30.00F
SEYMOUR +      LGT RAIN  61  57  88 SE8       29.98F

$$





USA.gov is the U.S. government's official web portal to all federal, state and local government web resources and services.